Location: Caltech
(34.1382°N, 118.1253°W)
Time: 18:03:08
(UTC-07:00)

Gbstr 26 Del rocket - Visible Passes

Search period start: 29 March 2015 00:00
Search period end: 08 April 2015 00:00
Orbit: 493 x 1273 km, 51.8° (Epoch: 28 March)

Date Brightness Start Highest point End Pass type
(mag) Time Alt. Az. Time Alt. Az. Time Alt. Az.
31 Mar 7.2 05:37:08 10° SE 05:38:44 11° ESE 05:41:00 10° ESE visible
01 Apr 6.9 05:31:22 10° SSE 05:35:22 15° ESE 05:39:47 10° E visible
02 Apr 6.7 05:26:41 10° SSE 05:32:00 20° ESE 05:37:33 10° E visible
03 Apr 6.3 05:22:24 10° S 05:28:38 26° SE 05:34:56 10° ENE visible
04 Apr 6.0 05:18:22 10° S 05:25:15 32° SE 05:32:07 10° ENE visible
05 Apr 5.6 05:14:30 10° SSW 05:21:53 40° SE 05:29:09 10° ENE visible
06 Apr 5.3 05:10:48 10° SSW 05:18:31 50° SE 05:26:05 10° ENE visible
07 Apr 6.7 03:25:34 10° SE 03:28:18 12° ESE 03:31:41 10° E visible
07 Apr 4.9 05:08:01 13° SSW 05:15:09 61° SE 05:22:56 10° NE visible
